TOP > 外国特許検索

外国特許検索

表示件数 詳細検索
特許の状態
出願国

リセット

該当件数 4753件

No. 出願番号
公報番号
出願国
発明の名称
掲載日
更新日
データ提供機関
201 2008JP002286 WO 2009/028163 世界知的所有権機関(WIPO) FILTER AND METHOD OF FILTRATION 新技術説明会 2010/01/15 2010/05/24 九州大学
202 2009JP069286 WO 2010/055887 世界知的所有権機関(WIPO) NOVEL SULFONIUM SALT, METHOD FOR PRODUCING SAME AND USE OF SAME 新技術説明会 2010/05/28 2010/05/26 佐賀大学
203 2005JP016638 WO 2006/028214 世界知的所有権機関(WIPO) VACCINE FOR ORAL ADMINISTRATION 2006/04/14 2010/06/02 金沢大TLO
204 2005JP023412 WO 2006/068155 世界知的所有権機関(WIPO) AGENT FOR RECONSTRUCTING NEURAL NETWORK COMPRISING CHINESE MEDICINE FORMULATION AND METHOD OF RECONSTRUCTING NEURAL NETWORK 2006/07/28 2010/06/02 富山大学
205 2008JP054411 WO 2008/111589 世界知的所有権機関(WIPO) METHOD FOR PRODUCTION OF PURIFIED ANTHOCYANIN 新技術説明会 2010/06/18 2010/06/15 四国TLO
206 2006JP325817 WO 2007/074788 世界知的所有権機関(WIPO) ANTI-TUMOR AGENT AND IMMUNOSTIMULATING AGENT 新技術説明会 2010/06/18 2010/06/17 琉球大学
207 2009JP069005 WO 2010/053160 世界知的所有権機関(WIPO) CONTENT SEARCH DEVICE AND CONTENT SEARCH PROGRAM 新技術説明会 2010/06/25 2010/06/23 北海道大学
208 2008JP002956 WO 2010/044129 世界知的所有権機関(WIPO) SEMICONDUCTOR LIGHT-EMITTING ELEMENT ARRAY AND MANUFACTURING METHOD THEREOF 2010/06/25 2010/06/23 北海道大学
209 2009JP003816 WO 2010/016278 世界知的所有権機関(WIPO) NON-DIFFUSING PLANT VIRUS VECTOR 2010/06/25 2010/06/23 北海道大学
210 2009JP059737 WO 2009/145243 世界知的所有権機関(WIPO) LIPID MEMBRANE APPLICABLE TO PHOTODYNAMIC THERAPY AND APPLICATION THEREOF 新技術説明会 2010/07/02 2010/07/01 奈良先端科学技術大学院大学
211 2009JP070062 WO 2010/061931 世界知的所有権機関(WIPO) CYCLOBUTYL PURINE DERIVATIVE, ANGIOGENESIS PROMOTING AGENT, LUMENIZATION PROMOTING AGENT, NEUROCYTE GROWTH PROMOTING AGENT, AND DRUG 新技術説明会 実績あり 2010/07/02 2010/07/02 四国TLO
212 2009JP062974 WO 2010/029810 世界知的所有権機関(WIPO) STRUCTURE OPTIMIZATION DEVICE, STRUCTURE OPTIMIZATION METHOD, AND STRUCTURE OPTIMIZATION PROGRAM 2010/07/16 2010/07/13 京都大学
213 2009JP065694 WO 2010/027093 世界知的所有権機関(WIPO) CATALYST FOR LIVING RADICAL POLYMERIZATION 2010/07/16 2010/07/13 京都大学
214 2009JP054588 WO 2010/001640 世界知的所有権機関(WIPO) CATALYST FOR CROSS-COUPLING REACTION, AND PROCESS FOR PRODUCTION OF AROMATIC COMPOUND USING THE SAME 新技術説明会 2010/07/16 2010/07/13 京都大学
215 2009JP052115 WO 2009/136510 世界知的所有権機関(WIPO) NOVEL LIVING RADICAL POLYMERIZATION METHOD WHEREIN ALCOHOL IS USED AS CATALYST 2010/07/16 2010/07/13 京都大学
216 2003JP011961 WO 2004/038492 世界知的所有権機関(WIPO) OPTICAL SIGNAL AMPLIFYING THREE-TERMINAL DEVICE, OPTICAL SIGNAL TRANSFER METHOD USING SAME, OPTICAL SIGNAL RELAY DEVICE, AND OPTICAL SIGNAL STORAGE DEVICE 2005/08/12 2010/07/28 科学技術振興機構(JST)
217 08568105 7498135 アメリカ合衆国 Method for preparing gene expression profile 2009/12/11 2010/08/27 放射線医学総合研究所
218 2008JP072123 WO 2009/072590 世界知的所有権機関(WIPO) BRANCHED POLYALKYLENE GLYCOL DERIVATIVE, PHOTOSENSITIVE COMPOSITION, CROSSLINKED MATERIAL, AND SUBSTRATE 2010/08/31 2010/08/27 東京理科大学
219 2008JP066384 WO 2009/035020 世界知的所有権機関(WIPO) NOVEL DIHYDRONAPHTHALENE COMPOUND AND USE THEREOF 2010/08/31 2010/08/27 東京理科大学
220 2010JP002865 WO 2010/122787 世界知的所有権機関(WIPO) PERITONEUM-PROTECTING AGENT AND METHOD FOR PRODUCING PERITONEUM-PROTECTING AGENT 2010/09/28 2010/12/15 岡山大学
221 2010JP056117 WO 2010/114143 世界知的所有権機関(WIPO) SYSTEM FOR INCREASING ACTIVITY OF SPECIFIC PROMOTER, AND VECTOR CARRYING THE SYSTEM 2010/09/28 2010/12/15 岡山大学
222 2010JP058642 WO 2010/134601 世界知的所有権機関(WIPO) PEPTIDE INDUCING XAGE-1B-SPECIFIC IMMUNE REACTION AND UTILIZATION OF SAME 2010/09/28 2010/12/15 岡山大学
223 2006JP304093 WO 2006/095648 世界知的所有権機関(WIPO) THREE-DIMENSIONAL PHOTONIC CRYSTAL AND METHOD FOR PRODUCING THE SAME 2010/11/25 2010/12/15 京都大学
224 2008JP065042 WO 2009/028424 世界知的所有権機関(WIPO) ELECTRONIC ELEMENT AND ELECTRICAL CONDUCTIVITY CONTROL METHOD 新技術説明会 2010/12/14 2010/12/15 岡山大学
225 2008JP065045 WO 2009/028426 世界知的所有権機関(WIPO) ELECTRONIC ELEMENT AND ELECTROCONDUCTIVITY CONTROL METHOD 新技術説明会 2010/12/14 2010/12/15 岡山大学
226 2008JP065724 WO 2009/031517 世界知的所有権機関(WIPO) SURFACE TREATING METHOD AND DEVICE THEREOF 新技術説明会 2010/12/14 2010/12/15 岡山大学
227 2009JP051034 WO 2009/093675 世界知的所有権機関(WIPO) METHOD AND BACTERIUM FOR PROMOTING THE GROWTH OF RACOMITRIUM CANESCENS AND SEED PLANTS 2010/12/14 2010/12/15 岡山大学
228 2009JP055816 WO 2009/119578 世界知的所有権機関(WIPO) MICRO-DROPLET DISPENSING DEVICE 2010/12/14 2010/12/15 岡山大学
229 2009JP053256 WO 2009/125626 世界知的所有権機関(WIPO) MESOTHELIOMA-SPECIFIC PROMOTER AND USE THEREOF 2010/12/14 2010/12/15 岡山大学
230 2009JP058996 WO 2009/145067 世界知的所有権機関(WIPO) THERAPEUTIC AGENT FOR PAIN AND USE THEREOF 新技術説明会 2010/12/14 2010/12/15 岡山大学
231 2009JP059982 WO 2009/148017 世界知的所有権機関(WIPO) ARTIFICIAL TERMITE EGG HAVING .BETA.-GLUCOSIDASE AS TERMITE EGG RECOGNITION PHEROMONE, AND CONTROL OF TERMITES USING THE SAME 2010/12/14 2010/12/15 岡山大学
232 2009JP061698 WO 2010/001824 世界知的所有権機関(WIPO) NOVEL ANTISCHISTOSOMAL AGENT 2010/12/14 2010/12/15 岡山大学
233 2009JP065264 WO 2010/026966 世界知的所有権機関(WIPO) NOVEL ANTI-HCV AGENT AND USE THEREOF 2010/12/14 2010/12/15 岡山大学
234 2009JP053140 WO 2009/107575 世界知的所有権機関(WIPO) DEVICE FOR NONDESTRUCTIVELY EXAMINING COMPOSITE STRUCTURE AND NONDESTRUCTIVE EXAMINATION METHOD 新技術説明会 2010/12/15 2010/12/15 高エネルギー加速器研究機構
235 2009JP067046 WO 2010/038785 世界知的所有権機関(WIPO) PHOTOSENSOR AND METHOD FOR MANUFACTURING THE PHOTOSENSOR 新技術説明会 2010/12/15 2010/12/15 岡山大学
236 2009JP067047 WO 2010/038786 世界知的所有権機関(WIPO) MEMORY ELEMENT, METHOD FOR MANUFACTURING THE MEMORY ELEMENT, AND MEMORY DEVICE COMPRISING MEMORY ELEMENT 新技術説明会 2010/12/15 2010/12/15 岡山大学
237 2009JP067048 WO 2010/038787 世界知的所有権機関(WIPO) PHOTOELECTRIC CONVERSION ELEMENT AND METHOD FOR MANUFACTURING THE PHOTOELECTRIC CONVERSION ELEMENT 新技術説明会 2010/12/15 2010/12/15 岡山大学
238 2009JP067049 WO 2010/038788 世界知的所有権機関(WIPO) CURRENT CONTROL ELEMENT AND METHOD FOR MANUFACTURING THE CURRENT CONTROL ELEMENT 新技術説明会 2010/12/15 2010/12/15 岡山大学
239 2009JP005235 WO 2010/041449 世界知的所有権機関(WIPO) ANTI-ALLERGIC AGENT COMPRISING RXR AGONIST AS ACTIVE INGREDIENT 2010/12/15 2010/12/15 岡山大学
240 2009JP005718 WO 2010/050211 世界知的所有権機関(WIPO) COMPOSITION FOR LOCAL ANESTHESIA 2010/12/15 2010/12/15 岡山大学
241 2009JP069224 WO 2010/055867 世界知的所有権機関(WIPO) METHOD FOR DETERMINING THERAPEUTIC EFFECT OF REPERFUSION THERAPY 新技術説明会 2010/12/15 2010/12/15 岡山大学
242 2010JP051087 WO 2010/087383 世界知的所有権機関(WIPO) ION SENSOR 2010/12/15 2010/12/15 岡山大学
243 2010JP053626 WO 2010/101240 世界知的所有権機関(WIPO) BIODEGRADABLE POROUS HOLLOW PARTICLE, AND PRODUCTION METHOD AND APPLICATION THEREOF 2010/12/15 2010/12/15 岡山大学
244 2009JP055702 WO 2010/109586 世界知的所有権機関(WIPO) CONCEALMENT-TYPE RADIOTHERAPY/IMAGING COMBINED DEVICE 2010/11/29 2010/12/16 放射線医学総合研究所
245 2009JP055701 WO 2010/109585 世界知的所有権機関(WIPO) DETECTOR-ROTATION-TYPE RADIOTHERAPY/IMAGING COMBINED DEVICE 2010/11/29 2010/12/16 放射線医学総合研究所
246 2009JP053928 WO 2010/100720 世界知的所有権機関(WIPO) REAGENT FOR MEASUREMENT OF CHOLINESTERASE ACTIVITY 2010/11/29 2010/12/16 放射線医学総合研究所
247 2008JP068920 WO 2010/041349 世界知的所有権機関(WIPO) MARKER FOR ESTIMATING THE PROGNOSIS OF CERVICAL ADENOCARCINOMA OR FOR ESTIMATING THE PROGNOSIS OF CERVICAL CANCER 2010/11/29 2010/12/16 放射線医学総合研究所
248 2008JP068279 WO 2010/041313 世界知的所有権機関(WIPO) DOI TYPE RADIATION DETECTOR 2010/11/29 2010/12/16 放射線医学総合研究所
249 2008JP063862 WO 2010/013346 世界知的所有権機関(WIPO) RADIATION THERAPY/PET COMBINED DEVICE 2010/11/29 2010/12/16 放射線医学総合研究所
250 2009JP061662 WO 2009/157526 世界知的所有権機関(WIPO) GAMMA-RAY DETECTOR, RADIATION DIAGNOSTIC DEVICE, TOMOGRAPHIC DEVICE, AND ANALYSIS METHOD THEREFOR 2010/11/29 2010/12/16 放射線医学総合研究所
251 2008JP063861 WO 2010/013345 世界知的所有権機関(WIPO) DETECTOR-SHIFT RADIATION THERAPY/PET COMBINED APPARATUS 2010/11/29 2010/12/16 放射線医学総合研究所
252 2009JP054780 WO 2010/103644 世界知的所有権機関(WIPO) OPEN PET-MRI COMPLEX MACHINE 2010/11/29 2010/12/16 放射線医学総合研究所
253 2009JP066652 WO 2010/041560 世界知的所有権機関(WIPO) QUANTITATIVE EVALUATION METHOD AND DEVICE FOR ZETA POTENTIAL, pH OR TEMPERATURE DISTRIBUTION AT WALL SURFACE, AND QUANTITATIVE VISUALIZATION METHOD AND DEVICE FOR SURFACE MODIFICATION 2010/12/09 2010/12/16 慶應義塾大学
254 2009JP005625 WO 2010/050167 世界知的所有権機関(WIPO) COMPOSITION FOR INDUCING TH2 CELL, THERAPEUTIC COMPOSITION FOR TH2-TYPE DISEASE, AND USE OF SAME 新技術説明会 2010/12/08 2010/12/27 兵庫医科大学
255 2009JP051907 WO 2009/099112 世界知的所有権機関(WIPO) NOVEL DNA FRAGMENT AND USE THEREOF 新技術説明会 2010/12/14 2010/12/27 岡山大学
256 2009JP004465 WO 2010/050109 世界知的所有権機関(WIPO) KIT FOR PRODUCING DOUBLE-STRANDED RNA WITH LACTIC ACID BACTERIUM, AND USE THEREOF 2010/12/15 2010/12/27 岡山大学
257 2010JP059889 WO 2010/143700 世界知的所有権機関(WIPO) DIHYDROXYHEXENOIC ACID ESTER AND METHOD FOR PRODUCING SAME 新技術説明会 2010/09/28 2011/01/19 岡山大学
258 2010JP060002 WO 2010/143734 世界知的所有権機関(WIPO) NITRO GROUP-CONTAINING ETHER COMPOUND AND METHOD FOR PRODUCING SAME 新技術説明会 2010/09/28 2011/01/19 岡山大学
259 2008JP073572 WO 2009/087908 世界知的所有権機関(WIPO) METHOD OF RECYCLING USEFUL METAL 新技術説明会 2011/01/05 2011/01/19 芝浦工業大学
260 2008JP059681 WO 2008/149712 世界知的所有権機関(WIPO) DISTORTION INSPECTING APPARATUS AND DISTORTION INSPECTING METHOD 新技術説明会 2011/01/12 2011/01/19 宮崎大学
261 2008JP002335 WO 2009/028186 世界知的所有権機関(WIPO) ELECTROMAGNETIC FIELD SPACE DISTRIBUTION VISUALIZING DEVICE, ELECTROMAGNETIC FIELD SPACE DISTRIBUTION VISUALIZING METHOD, AND PROGRAM THEREOF 新技術説明会 2011/01/12 2011/01/19 金沢大TLO
262 2009JP003429 WO 2010/013408 世界知的所有権機関(WIPO) RADIO FIELD STRENGTH MEASURING DEVICE AND RADIO FIELD STRENGTH MEASURING SYSTEM 新技術説明会 2011/01/12 2011/01/19 金沢大TLO
263 2008JP061243 WO 2008/156139 世界知的所有権機関(WIPO) PROTEIN ANALYSIS METHOD USING ISOTOPE COMPOUND AS LABEL 新技術説明会 2011/01/13 2011/01/19 福井大学
264 2008JP072942 WO 2009/078423 世界知的所有権機関(WIPO) FUSED TRICYCLIC COMPOUND HAVING ALDOSE REDUCTASE INHIBITORY ACTIVITY 新技術説明会 2011/01/13 2011/01/19 富山大学
265 2008JP055132 WO 2008/114829 世界知的所有権機関(WIPO) ENCRYPTION DEVICE, DECRYPTION DEVICE, ENCRYPTION PROGRAM, DECRYPTION PROGRAM, AND RECORDING MEDIUM 2011/01/13 2011/01/19 東京電機大学
266 2008JP069306 WO 2009/057517 世界知的所有権機関(WIPO) INTERPOLATION PROCESSING METHOD AND INTERPOLATION PROCESSOR 2011/01/17 2011/01/19 横浜国立大学
267 2009JP053252 WO 2009/142037 世界知的所有権機関(WIPO) APPROXIMATION PROCESSING METHOD AND APPROXIMATION PROCESSING DEVICE 2011/01/17 2011/01/19 横浜国立大学
268 2010JP062759 WO 2011/013735 世界知的所有権機関(WIPO) NOVEL FLAVANONE DERIVATIVE 2010/09/28 2011/02/16 岡山大学
269 2008JP001394 WO 2008/149542 世界知的所有権機関(WIPO) METHOD FOR PRODUCTION OF DHA-CONTAINING PHOSPHOLIPID THROUGH MICROBIAL FERMENTATION 新技術説明会 2011/01/20 2011/02/16 北海道大学
270 2010JP001867 WO 2010/106794 世界知的所有権機関(WIPO) SYSTEM FOR ANALYZING EXPRESSION PROFILE AND PROGRAM THEREOF 2011/01/20 2011/02/16 明治大学
271 2007JP067745 WO 2008/041457 世界知的所有権機関(WIPO) MASSAGE ROBOT, CONTROL PROGRAM THEREFOR, AND ROBOT FOR SPECIFYING PORTION OF HUMAN BODY 2011/02/03 2011/02/16 早稲田大学
272 2008JP052509 WO 2008/099915 世界知的所有権機関(WIPO) ROAD/FEATURE MEASURING DEVICE, FEATURE IDENTIFYING DEVICE, ROAD/FEATURE MEASURING METHOD, ROAD/FEATURE MEASURING PROGRAM, MEASURING DEVICE, MEASURING METHOD, MEASURING PROGRAM, MEASURED POSITION DATA, MEASURING TERMINAL, MEASURING SERVER DEVICE, DRAWING DEVICE, DRAWING METHOD, DRAWING PROGRAM, AND DRAWING DATA 2011/02/03 2011/02/16 早稲田大学
273 2005JP002821 WO 2005/079661 世界知的所有権機関(WIPO) APPARENT CHEMICAL SPECIES MEASURING METHOD AND MEASURING SYSTEM 2011/02/03 2011/02/16 早稲田大学
274 2006JP310372 WO 2006/134759 世界知的所有権機関(WIPO) SENTENCE EVALUATING DEVICE AND SENTENCE EVALUATING PROGRAM 2011/02/03 2011/02/16 早稲田大学
275 2009JP051533 WO 2009/096504 世界知的所有権機関(WIPO) MICRO VACUUM GAUGE 2011/02/09 2011/02/16 立命館大学
276 2008JP003523 WO 2009/069313 世界知的所有権機関(WIPO) SYSTEM FOR DELIVERING NUCLEIC ACIDS FOR SUPPRESSING TARGET GENE EXPRESSION BY UTILIZING ENDOGENOUS CHYLOMICRON 2010/11/10 2011/03/18 東京医科歯科大学
277 2010JP063296 WO 2011/016520 世界知的所有権機関(WIPO) ELECTROSTATIC SORTING APPARATUS 2011/03/03 2011/03/18 芝浦工業大学
278 2009JP064053 WO 2010/016587 世界知的所有権機関(WIPO) METHOD FOR EVALUATING SPECIFIC INCORPORATION OF D-GLUCOSE INTO CELLS 2011/03/04 2011/03/18 弘前大学
279 2009JP053157 WO 2010/001632 世界知的所有権機関(WIPO) MICRO-RNA ASSOCIATED WITH RHEUMATOID ARTHRITIS 2011/03/09 2011/03/18 神戸大学
280 2008JP054074 WO 2008/108438 世界知的所有権機関(WIPO) SILANE COUPLING AGENTS WITH HEAT RESISTANCE, DURABILITY, RELEASABILITY, AND ANTIFOULING PROPERTY AND PROCESS FOR PRODUCING THESE COMPOUNDS 2011/03/14 2011/03/18 東京理科大学
281 2010JP062351 WO 2011/010695 世界知的所有権機関(WIPO) METHOD FOR INCREASING YIELD OF STAPLE FOOD CROP 2011/03/18 2011/03/18 静岡大学
282 2008JP068114 WO 2009/044902 世界知的所有権機関(WIPO) DIELECTROPHORESIS DEVICE AND METHOD 2009/12/04 2011/03/22 九州工業大学
283 2010JP053374 WO 2010/098492 世界知的所有権機関(WIPO) ACTIVATED METAL SALT FLOCCULANT AND PROCESS FOR PRODUCING SAME 実績あり 2011/03/01 2011/03/22 山口TLO
284 2007JP056839 WO 2007/114238 世界知的所有権機関(WIPO) APPARATUS FOR DETERMINING BRAIN ATROPHY, METHOD OF DETERMINING BRAIN ATROPHY AND PROGRAM FOR DETERMINING BRAIN ATROPHY 2011/03/04 2011/03/22 浜松医科大学
285 2007JP000409 WO 2007/122814 世界知的所有権機関(WIPO) MULTIWELL INCUBATION APPARATUS AND METHOD OF ANALYSIS USING THE SAME 2011/03/04 2011/03/22 情報・システム研究機構 国立遺伝学研究所
286 2006JP325084 WO 2007/069736 世界知的所有権機関(WIPO) METHOD OF EVALUATING TREE BODY PRODUCTION POWER, IMAGING DEVICE FOR EVALUATING TREE BODY PRODUCTION POWER AND PROGRAM FOR EVALUATING TREE BODY PRODUCTION POWER 新技術説明会 2011/03/04 2011/03/22 山口TLO
287 2006JP300806 WO 2006/090538 世界知的所有権機関(WIPO) SYSTEM STABILITY CONTROL METHOD AND SYSTEM FOR ELECTRIC POWER SYSTEM 新技術説明会 実績あり 2011/03/07 2011/03/22 九州工業大学
288 2007JP061173 WO 2007/142133 世界知的所有権機関(WIPO) DISCHARGE PREVENTION DEVICE 2011/03/07 2011/03/22 九州工業大学
289 2008JP051318 WO 2008/120488 世界知的所有権機関(WIPO) ELECTRONIC CIRCUIT DEVICE 実績あり 2011/03/07 2011/03/22 九州工業大学
290 2008JP054308 WO 2008/126548 世界知的所有権機関(WIPO) METHOD FOR EVALUATING SRAM MEMORY CELL AND MEDIUM RECORDING EVALUATION PROGRAM OF SRAM MEMORY CELL COMPUTER READABLY 実績あり 2011/03/07 2011/03/22 九州工業大学
291 2005JP007813 WO 2005/105775 世界知的所有権機関(WIPO) METHOD OF RECOVERING LACTIDE FROM POLYLACTIC ACID OR DERIVATIVE THEREOF 新技術説明会 実績あり 2011/03/07 2011/03/22 九州工業大学
292 2005JP012541 WO 2006/016455 世界知的所有権機関(WIPO) EUROPIUM DIKETONE CHELATE COMPOUND AND FLUORESCENT MATERIAL USING SAME 実績あり 2011/03/08 2011/03/22 九州工業大学
293 2005JP014811 WO 2006/019043 世界知的所有権機関(WIPO) POROUS SHEET MEMBER FOR CELL CULTURE AND, UTILIZING THE SAME, BIOREACTOR AND CULTURING METHOD 2011/03/08 2011/03/22 九州工業大学
294 2007JP053155 WO 2008/029521 世界知的所有権機関(WIPO) THERMOACOUSTIC DEVICE 2011/03/10 2011/03/22 同志社大学
295 2007JP065086 WO 2008/026414 世界知的所有権機関(WIPO) IMAGE RECOGNITION METHOD, IMAGE RECOGNITION DEVICE, AND IMAGE RECOGNITION PROGRAM 新技術説明会 2011/03/14 2011/03/22 大阪府立大学
296 2007JP073761 WO 2008/069341 世界知的所有権機関(WIPO) SHIP BUOYANCY CONTROL SYSTEM 2011/03/14 2011/03/22 横浜国立大学
297 2008JP054918 WO 2008/120570 世界知的所有権機関(WIPO) CULTURE MEDIUM FOR PRODUCTION OF PROTEIN OR PROLIFERATION OF VIRUS 2011/03/14 2011/03/22 岡山大学
298 2008JP055286 WO 2008/117753 世界知的所有権機関(WIPO) METHOD FOR IMAGING BLOOD VESSEL, SYSTEM FOR IMAGING BLOOD VESSEL AND PROGRAM FOR IMAGING BLOOD VESSEL 2011/03/14 2011/03/22 岐阜大学
299 2008JP051899 WO 2008/093881 世界知的所有権機関(WIPO) METHOD FOR SYNTHESIS OF NITROXYL RADICAL 2011/03/14 2011/03/22 九州大学
300 2008JP056826 WO 2008/123614 世界知的所有権機関(WIPO) METHOD FOR PRODUCTION OF THREE-DIMENSIONAL STRUCTURE OF CELLS 2011/03/14 2011/03/22 九州大学

(3/48ページ)

PAGE TOP